{"data":{"norad_id":65584,"intl_designator":"2025-203V","name":"PRAETORIAN SDA_621","alt_names":[],"object_type":"PAYLOAD","status":"ACTIVE","operator":null,"country":"US","launch_date":"2025-09-10","launch_site_code":"AFWTR","launch_vehicle":null,"mission":null,"orbit_class":"UNKNOWN","rcs_meters":null,"size_class":null,"mass_kg":null,"dimensions":null,"purposes":["military"],"wikipedia_slug":null,"has_3d_model":false,"image_url":null,"decayed_at":null,"tle_current":{"epoch":"2026-09-19T19:21:01.245024Z","epoch_age_seconds":74352,"freshness":"FRESH","line1":"1 65584U 25203V   26262.80626441  .00000054  00000+0  38192-4 0  9994","line2":"2 65584  81.2987 283.1500 0006302 292.4575  67.5914 13.83809580 51787","mean_motion":13.8380958,"eccentricity":0.0006302,"inclination_deg":81.2987,"raan_deg":283.15,"arg_perigee_deg":292.4575,"mean_anomaly_deg":67.5914,"bstar":3.8192e-5,"rev_number":5178,"period_min":104.06056012418,"perigee_km":945.78719822923,"apogee_km":955.02409338,"semimajor_km":7328.5426458046,"source":"CELESTRAK","updated_at":"2026-09-20T09:00:47.718852Z"}}}